Audubon, IA

1:27 AM CDT on August 23, 2017 (GMT -0500)
Audubon County

Weather History for KADU - August, 2013

Change the Weather History Date:

Tuesday, August 20, 2013

  Actual Average Record
Temperature  
Mean Temperature 78 °F -  
Max Temperature 87 °F 83 °F 97 °F (1955)
Min Temperature 69 °F 60 °F 39 °F (1950)
Cooling Degree Days 13    
Growing Degree Days 28 (Base 50)    
Moisture  
Dew Point 66 °F    
Average Humidity 67    
Maximum Humidity 78    
Minimum Humidity 55    
Precipitation  
Precipitation 0.00 in - - ()
Sea Level Pressure  
Sea Level Pressure 29.98 in    
Wind  
Wind Speed 10 mph (South)    
Max Wind Speed 18 mph    
Max Gust Speed 25 mph    
Visibility 10 miles    
Events      
Averages and records for this station are not official NWS values.
T = Trace of Precipitation, MM = Missing Value Source: NWS Daily Summary

Daily Weather History Graph

Daily Weather History Graph

Search for Another Location

Airport or City:

Trip Planner

Search our weather history database for the weather conditions in past years. The results will help you decide how hot, cold, wet, or windy it might be!

Date:

Astronomy

Aug. 20, 2013 Rise Set
Actual Time 6:33 AM CDT 8:11 PM CDT
Civil Twilight 6:04 AM CDT 8:40 PM CDT
Nautical Twilight 5:28 AM CDT 9:16 PM CDT
Astronomical Twilight 4:50 AM CDT 9:54 PM CDT
Moon 7:42 PM CDT (8/20) 6:04 AM CDT (8/20)
Length of Visible Light 14h 36m
Length of Day
13h 38m
Full, 100% of the Moon is Illuminated
Aug 20
Full
Aug 20
Full
Aug 28
Last Quarter
Sep 5
New
Sep 12
First Quarter

Hourly Weather History & Observations

Time (CDT) Temp. Heat Index Dew Point Humidity Pressure Visibility Wind Dir Wind Speed Gust Speed Precip Events Conditions
12:15 AM 71.6 °F - 62.6 °F 73% 29.99 in 10.0 mi South 8.1 mph - N/A   Clear
12:35 AM 71.6 °F - 62.6 °F 73% 29.99 in 10.0 mi South 4.6 mph - N/A   Clear
12:55 AM 71.6 °F - 62.6 °F 73% 29.99 in 10.0 mi South 6.9 mph - N/A   Clear
1:15 AM 71.6 °F - 62.6 °F 73% 29.99 in 10.0 mi South 5.8 mph - N/A   Clear
1:35 AM 71.6 °F - 62.6 °F 73% 29.99 in 10.0 mi South 6.9 mph - N/A   Clear
1:55 AM 71.6 °F - 62.6 °F 73% 29.99 in 10.0 mi South 9.2 mph - N/A   Clear
2:15 AM 71.6 °F - 62.6 °F 73% 29.98 in 10.0 mi South 9.2 mph - N/A   Clear
2:35 AM 71.6 °F - 62.6 °F 73% 29.98 in 10.0 mi South 9.2 mph 16.1 mph N/A   Clear
2:55 AM 71.6 °F - 62.6 °F 73% 29.99 in 10.0 mi South 8.1 mph - N/A   Clear
3:15 AM 69.8 °F - 62.6 °F 78% 29.99 in 10.0 mi South 4.6 mph - N/A   Clear
3:35 AM 69.8 °F - 62.6 °F 78% 29.99 in 10.0 mi South 4.6 mph - N/A   Clear
3:55 AM 69.8 °F - 62.6 °F 78% 29.99 in 10.0 mi South 4.6 mph - N/A   Clear
4:15 AM 69.8 °F - 62.6 °F 78% 29.99 in 10.0 mi South 4.6 mph - N/A   Scattered Clouds
4:35 AM 69.8 °F - 62.6 °F 78% 29.99 in 10.0 mi South 6.9 mph - N/A   Scattered Clouds
4:55 AM 69.8 °F - 62.6 °F 78% 29.98 in 10.0 mi South 8.1 mph - N/A   Scattered Clouds
5:15 AM 69.8 °F - 62.6 °F 78% 29.98 in 10.0 mi South 9.2 mph - N/A   Clear
5:35 AM 69.8 °F - 62.6 °F 78% 29.98 in 10.0 mi South 9.2 mph - N/A   Clear
5:55 AM 69.8 °F - 62.6 °F 78% 29.99 in 10.0 mi South 10.4 mph - N/A   Scattered Clouds
6:15 AM 69.8 °F - 62.6 °F 78% 29.99 in 10.0 mi South 9.2 mph - N/A   Scattered Clouds
6:35 AM 69.8 °F - 62.6 °F 78% 29.99 in 10.0 mi South 6.9 mph - N/A   Scattered Clouds
6:55 AM 71.6 °F - 62.6 °F 73% 29.99 in 10.0 mi South 8.1 mph - N/A   Scattered Clouds
7:15 AM 71.6 °F - 62.6 °F 73% 29.99 in 10.0 mi South 9.2 mph - N/A   Scattered Clouds
7:35 AM 71.6 °F - 62.6 °F 73% 30.00 in 10.0 mi South 8.1 mph - N/A   Clear
7:55 AM 71.6 °F - 64.4 °F 78% 30.00 in 10.0 mi South 10.4 mph - N/A   Clear
8:15 AM 73.4 °F - 64.4 °F 73% 30.00 in 10.0 mi South 11.5 mph - N/A   Clear
8:35 AM 75.2 °F - 64.4 °F 69% 30.00 in 10.0 mi South 11.5 mph 17.3 mph N/A   Clear
8:55 AM 73.4 °F - 64.4 °F 73% 30.00 in 10.0 mi South 13.8 mph 17.3 mph N/A   Scattered Clouds
9:15 AM 75.2 °F - 66.2 °F 73% 30.00 in 10.0 mi SSW 10.4 mph 19.6 mph N/A   Clear
9:35 AM 77.0 °F - 66.2 °F 69% 30.00 in 10.0 mi SSW 12.7 mph 18.4 mph N/A   Clear
9:55 AM 78.8 °F - 66.2 °F 65% 30.00 in 10.0 mi SSW 16.1 mph 21.9 mph N/A   Clear
10:15 AM 78.8 °F - 66.2 °F 65% 30.00 in 10.0 mi SSW 11.5 mph 25.3 mph N/A   Clear
10:35 AM 80.6 °F 82.7 °F 66.2 °F 61% 30.00 in 7.0 mi SSW 15.0 mph 24.2 mph N/A   Clear
10:55 AM 80.6 °F 82.7 °F 66.2 °F 61% 30.00 in 10.0 mi SSW 13.8 mph 24.2 mph N/A   Clear
11:15 AM 82.4 °F 84.6 °F 66.2 °F 58% 30.00 in 10.0 mi SSW 13.8 mph 20.7 mph N/A   Clear
11:35 AM 82.4 °F 84.6 °F 66.2 °F 58% 30.00 in 10.0 mi SSW 18.4 mph 24.2 mph N/A   Clear
11:55 AM 82.4 °F 84.6 °F 66.2 °F 58% 29.99 in 10.0 mi SSW 15.0 mph 21.9 mph N/A   Clear
12:15 PM 82.4 °F 84.6 °F 66.2 °F 58% 29.99 in 10.0 mi SSW 15.0 mph 23.0 mph N/A   Clear
12:35 PM 84.2 °F 86.6 °F 66.2 °F 55% 29.99 in 10.0 mi SSW 15.0 mph 21.9 mph N/A   Clear
12:55 PM 84.2 °F 87.3 °F 68.0 °F 58% 29.98 in 10.0 mi SSW 16.1 mph 19.6 mph N/A   Clear
1:15 PM 84.2 °F 87.3 °F 68.0 °F 58% 29.98 in 10.0 mi SSW 17.3 mph 23.0 mph N/A   Clear
1:35 PM 84.2 °F 87.3 °F 68.0 °F 58% 29.98 in 10.0 mi South 15.0 mph 19.6 mph N/A   Clear
1:55 PM 86.0 °F 90.4 °F 69.8 °F 58% 29.97 in 10.0 mi SSW 13.8 mph 18.4 mph N/A   Clear
2:15 PM 86.0 °F 90.4 °F 69.8 °F 58% 29.97 in 10.0 mi SSW 17.3 mph 20.7 mph N/A   Clear
2:35 PM 86.0 °F 90.4 °F 69.8 °F 58% 29.97 in 10.0 mi South 11.5 mph - N/A   Clear
2:55 PM 86.0 °F 90.4 °F 69.8 °F 58% 29.97 in 10.0 mi SSW 10.4 mph 21.9 mph N/A   Clear
3:15 PM 87.8 °F 92.6 °F 69.8 °F 55% 29.96 in 10.0 mi SSW 16.1 mph 20.7 mph N/A   Clear
3:35 PM 87.8 °F 92.6 °F 69.8 °F 55% 29.95 in 10.0 mi SSW 15.0 mph 18.4 mph N/A   Clear
3:55 PM 87.8 °F 92.6 °F 69.8 °F 55% 29.95 in 10.0 mi South 16.1 mph 21.9 mph N/A   Clear
4:15 PM 86.0 °F 90.4 °F 69.8 °F 58% 29.95 in 10.0 mi South 13.8 mph 21.9 mph N/A   Clear
4:35 PM 86.0 °F 89.4 °F 68.0 °F 55% 29.95 in 10.0 mi South 16.1 mph 21.9 mph N/A   Clear
4:55 PM 86.0 °F 89.4 °F 68.0 °F 55% 29.95 in 10.0 mi South 15.0 mph 21.9 mph N/A   Clear
5:15 PM 86.0 °F 89.4 °F 68.0 °F 55% 29.95 in 10.0 mi South 16.1 mph 23.0 mph N/A   Clear
5:35 PM 86.0 °F 89.4 °F 68.0 °F 55% 29.95 in 10.0 mi SSW 13.8 mph 18.4 mph N/A   Clear
5:55 PM 84.2 °F 87.3 °F 68.0 °F 58% 29.95 in 10.0 mi SSW 11.5 mph 17.3 mph N/A   Clear
6:15 PM 84.2 °F 87.3 °F 68.0 °F 58% 29.95 in 10.0 mi SSW 11.5 mph - N/A   Clear
6:35 PM 84.2 °F 88.4 °F 69.8 °F 62% 29.95 in 10.0 mi South 8.1 mph - N/A   Clear
6:55 PM 82.4 °F 86.3 °F 69.8 °F 66% 29.95 in 10.0 mi South 12.7 mph 18.4 mph N/A   Clear
7:15 PM 82.4 °F 86.3 °F 69.8 °F 66% 29.95 in 10.0 mi South 9.2 mph 17.3 mph N/A   Clear
7:35 PM 80.6 °F 83.2 °F 68.0 °F 65% 29.95 in 10.0 mi South 9.2 mph - N/A   Clear
7:55 PM 80.6 °F 83.2 °F 68.0 °F 65% 29.95 in 10.0 mi South 8.1 mph - N/A   Clear
8:15 PM 78.8 °F - 68.0 °F 69% 29.96 in 10.0 mi South 8.1 mph - N/A   Clear
8:35 PM 78.8 °F - 68.0 °F 69% 29.96 in 10.0 mi South 8.1 mph - N/A   Clear
8:55 PM 78.8 °F - 68.0 °F 69% 29.97 in 10.0 mi South 5.8 mph - N/A   Clear
9:15 PM 77.0 °F - 66.2 °F 69% 29.97 in 10.0 mi South 6.9 mph - N/A   Clear
9:35 PM 75.2 °F - 66.2 °F 73% 29.98 in 10.0 mi South 5.8 mph - N/A   Clear
9:55 PM 75.2 °F - 66.2 °F 73% 29.98 in 10.0 mi South 8.1 mph - N/A   Clear
10:15 PM 75.2 °F - 66.2 °F 73% 29.98 in 10.0 mi South 8.1 mph - N/A   Clear
10:35 PM 75.2 °F - 66.2 °F 73% 29.98 in 10.0 mi South 8.1 mph - N/A   Clear
10:55 PM 75.2 °F - 66.2 °F 73% 29.98 in 10.0 mi South 8.1 mph - N/A   Clear
11:15 PM 75.2 °F - 66.2 °F 73% 29.98 in 10.0 mi South 8.1 mph - N/A   Clear
11:35 PM 75.2 °F - 66.2 °F 73% 29.98 in 10.0 mi South 11.5 mph - N/A   Clear
11:55 PM 75.2 °F - 66.2 °F 73% 29.98 in 10.0 mi South 8.1 mph - N/A   Clear